Location: Drocourt
(49.0571°N, 1.7669°E)
Time: 23:23:07
(UTC+00:00)

Cosmos 1814 Rocket - Pass Details

Date: 09 February 2023
Orbit: 743 x 787 km, 74.1° (Epoch: 21 March)

Event Time Altitude Azimuth Distance (km) Brightness Sun altitude
Rises 17:53:47 0° 338° (NNW) 3,289 7.4 -8.8°
Reaches altitude 10° 17:56:14 10° 343° (NNW) 2,358 6.6 -9.2°
Maximum altitude 18:01:33 60° 63° (ENE) 904 4.1 -10.1°
Drops below altitude 10° 18:06:49 10° 143° (SE) 2,340 6.2 -10.9°
Sets 18:09:13 0° 147° (SSE) 3,261 7.0 -11.3°
